[[{"header":{"parameterUnit":"m.s-1","parameterCategory":1,"la1":30.2991,"la2":30.254,"lo1":-89.0895,"lo2":-89.0444,"dy":0.0017,"dx":0.0017,"nx":28,"ny":28,"refTime":"2024-07-01T03:00:00:Z","depth":0,"parameterNumber":2,"parameterNumberName":"U-component_of_WINDS"},"data":[0,0,0,0,0,0,0,0,0,0,0,0,0,0,0,0,0,0,0,0,0,0,0,0,0,0,0,0,0,0,0,0,0,0,0,0,0,0,0,0,0,0,0,0,0,0,0,0,0,0,0,0,0,0,0,0,0,0,2.0786,2.0787,0,2.0853,2.0854,2.0855,2.0834,2.0832,2.0831,2.083,2.0898,2.0901,2.0905,0,0,0,0,0,0,0,0,0,0,0,0,0,2.064,2.0643,2.0786,2.0787,2.0788,2.0853,2.0854,2.0855,2.0834,2.0832,2.0831,2.0829,2.0897,2.0901,2.0905,0,0,0,0,0,0,0,0,0,0,0,0,0,2.0705,2.0644,2.0786,2.0785,2.0786,2.0853,2.0854,2.0855,2.0834,2.0832,2.083,2.0828,2.0896,2.0901,2.0905,2.0977,0,0,2.092,2.0922,0,0,0,0,0,0,0,0,2.0701,2.071,2.0784,2.0785,2.0786,2.0833,2.0828,2.0896,2.0835,2.0816,2.0829,2.0827,2.0878,2.0884,2.0902,2.0981,2.0984,2.092,2.0923,2.0925,2.0927,0,0,0,0,0,0,0,2.0697,2.0707,2.0813,2.0786,2.0787,2.0782,2.0788,2.0841,2.0858,2.0817,2.0816,2.0824,2.0878,2.0897,2.0903,2.0985,2.092,2.0924,2.0927,2.0929,2.1126,2.1129,0,0,0,0,0,0,2.0692,2.0704,2.081,2.0815,2.0738,2.0786,2.0794,2.082,2.0858,2.0861,2.0826,2.0823,2.089,2.0898,2.0905,2.0992,2.0925,2.093,2.0932,2.1124,2.1127,2.1129,0,0,0,0,0,0,2.0689,2.0701,2.0808,2.0759,2.0772,2.0791,2.0821,2.0823,2.0841,2.0864,2.0867,2.0842,2.0889,2.0899,2.096,2.0994,2.0932,2.0936,2.1121,2.1125,2.1128,2.1166,0,0,0,0,0,0,2.0685,2.07,2.0728,2.076,2.0775,2.0861,2.0823,2.0825,2.0849,2.0846,2.088,2.0883,2.0888,2.0953,2.0964,2.1,2.094,2.1118,2.1123,2.1127,2.1162,2.117,2.1178,0,0,0,0,0,2.0679,2.0736,2.0729,2.0742,2.0809,2.0863,2.0871,2.0875,2.0852,2.088,2.0895,2.0882,2.0989,2.0959,2.0972,2.1009,2.1116,2.1121,2.1127,2.1158,2.1169,2.1178,0,0,0,0,0,0,2.0707,2.074,2.0733,2.0801,2.0829,2.0859,2.0894,2.0886,2.0922,2.0917,2.092,2.0928,2.0991,2.1006,2.0973,2.1081,2.1049,2.1057,2.1068,2.1079,2.1087,2.1081,2.0944,0,0,0,0,0,2.0721,2.0762,2.0788,2.0846,2.0861,2.0875,2.0899,2.0899,2.0928,2.094,2.0959,2.0988,2.1028,2.1055,2.1093,2.1164,2.1171,2.1196,2.1204,2.1211,2.1218,2.1257,2.1268,2.1147,2.1147,2.1147,0,0,2.0751,2.0774,2.0799,2.0852,2.0874,2.0916,2.0885,2.0931,2.0962,2.0947,2.1006,2.1021,2.1054,2.112,2.1151,2.1135,2.1253,2.1218,2.1223,2.1226,2.1264,2.1275,2.1285,2.1151,2.115,2.115,0,0,2.0825,2.0847,2.0897,2.092,2.0954,2.0963,2.0976,2.1007,2.1017,2.1076,2.1065,2.1103,2.1172,2.1195,2.1216,2.1302,2.1291,2.1314,2.1356,2.1394,2.1403,2.1412,2.1442,2.1453,2.1321,2.1321,2.1321,0,2.0858,2.092,2.0924,2.0971,2.0995,2.0984,2.1035,2.1057,2.1102,2.1118,2.11,2.1187,2.1208,2.128,2.1301,2.1319,2.1333,2.1309,2.1402,2.141,2.1418,2.1447,2.1458,2.1324,2.1323,2.1323,2.1323,0,2.0958,2.1002,2.1039,2.1082,2.111,2.1159,2.1171,2.1199,2.1197,2.1209,2.1269,2.1295,2.1338,2.1355,2.1354,2.1427,2.1417,2.1401,2.1368,2.1432,2.1459,2.147,2.1327,2.1326,2.1325,2.1325,0,0,2.1051,2.1097,2.111,2.113,2.1167,2.1201,2.1249,2.1292,2.1316,2.1347,2.1388,2.1447,2.1432,2.1456,2.1458,2.1492,2.1558,2.1472,2.1472,2.1486,2.1639,2.1651,2.1663,2.1552,2.1554,2.1555,2.1636,0,2.1129,2.1214,2.1219,2.1296,2.1337,2.1328,2.137,2.1397,2.141,2.1446,2.146,2.1502,2.1479,2.1494,2.1527,2.1542,2.1588,2.1537,2.1589,2.1591,2.158,2.1677,2.1689,2.1765,2.1647,2.1649,2.165,0,2.123,2.1265,2.1346,2.1377,2.1395,2.1433,2.1472,2.1507,2.1538,2.1545,2.1572,2.157,2.162,2.1587,2.1656,2.1621,2.1643,2.1654,2.1657,2.1661,2.1624,2.1683,2.1789,2.18,2.1667,2.1666,2.1664,0,2.1289,2.1356,2.1413,2.143,2.1469,2.1496,2.1513,2.1542,2.1567,2.1602,2.1619,2.1659,2.1681,2.1712,2.1721,2.1696,2.179,2.1757,2.1796,2.1796,2.1816,2.1814,2.1925,2.1832,2.1831,2.1831,2.1831,0,2.1374,2.1424,2.144,2.1475,2.1531,2.1537,2.1592,2.1608,2.1634,2.1672,2.1667,2.1703,2.1713,2.1751,2.1758,2.1814,2.1824,2.1831,2.1832,2.1831,2.183,2.1845,2.1839,2.1834,2.1834,2.1833,2.1832,0,2.1449,2.1461,2.1523,2.1555,2.1564,2.1604,2.1631,2.1665,2.1677,2.1725,2.1737,2.1756,2.1801,2.1813,2.1866,2.1871,2.1937,2.1934,2.1926,2.1926,2.1964,2.196,2.2087,2.2104,2.2001,2.2002,2.2002,0,2.1502,2.154,2.1576,2.1601,2.1619,2.166,2.1686,2.1694,2.1721,2.176,2.179,2.1833,2.1869,2.194,2.1959,2.2,2.1997,2.2039,2.2003,2.2001,2.1997,2.1994,2.1998,2.2045,2.2046,2.2047,2.2048,0,2.1594,2.1599,2.1636,2.1677,2.1708,2.1739,2.177,2.1791,2.1803,2.1834,2.188,2.1907,2.1962,2.2005,2.2047,2.2065,2.2059,2.206,2.2071,2.2069,2.2063,2.2066,2.1944,2.2056,2.2055,2.2055,2.2054,2.2054,2.1659,2.1693,2.1723,2.1765,2.1789,2.1818,2.1852,2.1868,2.1906,2.1951,2.1954,2.2003,2.2034,2.2089,2.211,2.2149,2.2136,2.2152,2.2156,2.216,2.2163,2.2058,2.2156,2.2156,2.2156,2.2156,2.2156,0,2.1751,2.1771,2.1809,2.1852,2.1886,2.1877,2.1911,2.1939,2.1983,2.2012,2.2047,2.2099,2.2142,2.2165,2.2207,2.2234,2.2232,2.2245,2.2242,2.2246,2.2172,2.2158,2.2245,2.2245,2.2245,2.2245,2.2245,2.2245,2.1803,2.1859,2.1868,2.1936,2.1955,2.2003,2.2023,2.205,2.2073,2.2132,2.2167,2.2182,2.2209,2.2253,2.2292,2.2298,2.2313,2.2327,2.2331,2.2261,2.2252,2.2243,2.2229,2.2331,2.2331,2.2402,2.2403,2.2403]},{"header":{"parameterUnit":"m.s-1","parameterCategory":1,"la1":30.2991,"la2":30.254,"lo1":-89.0895,"lo2":-89.0444,"dy":0.0017,"dx":0.0017,"nx":28,"ny":28,"refTime":"2024-07-01T03:00:00:Z","depth":0,"parameterNumber":3,"parameterNumberName":"V-component_of_WINDS"},"data":[0,0,0,0,0,0,0,0,0,0,0,0,0,0,0,0,0,0,0,0,0,0,0,0,0,0,0,0,0,0,0,0,0,0,0,0,0,0,0,0,0,0,0,0,0,0,0,0,0,0,0,0,0,0,0,0,0,0,-0.6396,-0.6397,0,-0.6486,-0.6487,-0.6488,-0.6528,-0.6528,-0.6528,-0.6528,-0.6622,-0.6624,-0.6627,0,0,0,0,0,0,0,0,0,0,0,0,0,-0.6259,-0.6261,-0.6396,-0.6397,-0.6398,-0.6486,-0.6487,-0.6488,-0.6528,-0.6528,-0.6528,-0.6528,-0.6621,-0.6624,-0.6627,0,0,0,0,0,0,0,0,0,0,0,0,0,-0.6331,-0.6262,-0.6395,-0.6429,-0.6432,-0.6486,-0.6487,-0.6489,-0.6528,-0.6528,-0.6528,-0.6528,-0.662,-0.6624,-0.6627,-0.6655,0,0,-0.6639,-0.6641,0,0,0,0,0,0,0,0,-0.6326,-0.6336,-0.6423,-0.6426,-0.6431,-0.6496,-0.6473,-0.6544,-0.6529,-0.6492,-0.6528,-0.6528,-0.658,-0.6587,-0.6605,-0.6659,-0.6663,-0.664,-0.6642,-0.6644,-0.6645,0,0,0,0,0,0,0,-0.6321,-0.6332,-0.6431,-0.6424,-0.6429,-0.6439,-0.6449,-0.6487,-0.6536,-0.6495,-0.6498,-0.6508,-0.6582,-0.6601,-0.6607,-0.6665,-0.664,-0.6643,-0.6646,-0.6647,-0.6746,-0.6747,0,0,0,0,0,0,-0.6311,-0.6327,-0.6429,-0.6434,-0.6377,-0.6442,-0.6453,-0.6475,-0.6536,-0.6545,-0.6508,-0.651,-0.6594,-0.6602,-0.661,-0.6647,-0.6644,-0.6647,-0.665,-0.6746,-0.6747,-0.6747,0,0,0,0,0,0,-0.6308,-0.632,-0.6425,-0.6382,-0.6396,-0.6444,-0.6469,-0.6477,-0.6495,-0.6546,-0.6555,-0.6518,-0.6594,-0.6605,-0.6643,-0.665,-0.6649,-0.6653,-0.6746,-0.6746,-0.6747,-0.6719,0,0,0,0,0,0,-0.6304,-0.6318,-0.6329,-0.6382,-0.6398,-0.6456,-0.6469,-0.6479,-0.6502,-0.6505,-0.6557,-0.6566,-0.6595,-0.6637,-0.6647,-0.6656,-0.6656,-0.6745,-0.6746,-0.6747,-0.6719,-0.6718,-0.6717,0,0,0,0,0,-0.6299,-0.6318,-0.6329,-0.6341,-0.6412,-0.6456,-0.6466,-0.6499,-0.6502,-0.6514,-0.6546,-0.6564,-0.6648,-0.6641,-0.6653,-0.6662,-0.6745,-0.6746,-0.6747,-0.672,-0.6719,-0.6717,0,0,0,0,0,0,-0.6265,-0.6325,-0.6339,-0.6375,-0.641,-0.6463,-0.6478,-0.6496,-0.6531,-0.6533,-0.6572,-0.6584,-0.6619,-0.6645,-0.6636,-0.6692,-0.6698,-0.6701,-0.6674,-0.6673,-0.6672,-0.6665,-0.6659,0,0,0,0,0,-0.6262,-0.6292,-0.6343,-0.6371,-0.6388,-0.643,-0.645,-0.6472,-0.6511,-0.6526,-0.6561,-0.6597,-0.6632,-0.6654,-0.6689,-0.6723,-0.6735,-0.6736,-0.6734,-0.6733,-0.6736,-0.6756,-0.6757,-0.6749,-0.6749,-0.6749,0,0,-0.6256,-0.6293,-0.6309,-0.6365,-0.6395,-0.6426,-0.6442,-0.6474,-0.6497,-0.6531,-0.6569,-0.6596,-0.6639,-0.6676,-0.6694,-0.6698,-0.674,-0.6734,-0.6733,-0.6736,-0.6757,-0.6757,-0.6758,-0.675,-0.6749,-0.6749,0,0,-0.6261,-0.6291,-0.6318,-0.6347,-0.6391,-0.6419,-0.6425,-0.6475,-0.6494,-0.6533,-0.6559,-0.6587,-0.6646,-0.6676,-0.6699,-0.6714,-0.6732,-0.6724,-0.6719,-0.6738,-0.6739,-0.674,-0.6745,-0.6747,-0.6726,-0.6726,-0.6726,0,-0.6248,-0.6295,-0.6329,-0.6359,-0.6383,-0.6414,-0.6441,-0.6468,-0.6521,-0.6537,-0.6541,-0.6615,-0.6647,-0.6691,-0.6694,-0.6712,-0.672,-0.6718,-0.6736,-0.6737,-0.6738,-0.6744,-0.6746,-0.6725,-0.6725,-0.6725,-0.6725,0,-0.6277,-0.6309,-0.6325,-0.6375,-0.6401,-0.6429,-0.6468,-0.6489,-0.6509,-0.6536,-0.6576,-0.6614,-0.6657,-0.6669,-0.6689,-0.6716,-0.6718,-0.6728,-0.6735,-0.6737,-0.6743,-0.6746,-0.6723,-0.6723,-0.6724,-0.6724,0,0,-0.6264,-0.6332,-0.6337,-0.636,-0.6411,-0.6437,-0.6467,-0.6508,-0.6526,-0.6562,-0.6588,-0.6637,-0.6647,-0.6673,-0.6696,-0.6713,-0.6723,-0.6722,-0.6724,-0.6721,-0.6755,-0.6747,-0.6749,-0.6735,-0.6735,-0.6736,-0.6751,0,-0.6276,-0.633,-0.6361,-0.6403,-0.6433,-0.6462,-0.6488,-0.6523,-0.6549,-0.6579,-0.6608,-0.6642,-0.6652,-0.6668,-0.6686,-0.6718,-0.673,-0.6717,-0.676,-0.6761,-0.6749,-0.6752,-0.6744,-0.6757,-0.6754,-0.6755,-0.6755,0,-0.6297,-0.6332,-0.6376,-0.6423,-0.6437,-0.646,-0.65,-0.6528,-0.6568,-0.6586,-0.6614,-0.6637,-0.667,-0.6674,-0.672,-0.671,-0.673,-0.6748,-0.6749,-0.6755,-0.6758,-0.6758,-0.6762,-0.6763,-0.6759,-0.6759,-0.6758,0,-0.6283,-0.6341,-0.6375,-0.6394,-0.645,-0.6465,-0.6489,-0.6528,-0.6551,-0.6587,-0.6602,-0.6641,-0.6662,-0.6691,-0.6725,-0.6724,-0.6767,-0.6774,-0.6783,-0.6783,-0.6792,-0.6791,-0.6798,-0.6803,-0.6803,-0.6803,-0.6803,0,-0.6294,-0.632,-0.6369,-0.639,-0.6421,-0.6456,-0.6485,-0.6512,-0.6546,-0.6573,-0.6601,-0.6625,-0.6667,-0.6697,-0.6724,-0.6758,-0.6767,-0.6783,-0.679,-0.6781,-0.6779,-0.6794,-0.6794,-0.6804,-0.6804,-0.6804,-0.6803,0,-0.6284,-0.6318,-0.6357,-0.6406,-0.6419,-0.6439,-0.6482,-0.6504,-0.6531,-0.6565,-0.6575,-0.6618,-0.6654,-0.669,-0.674,-0.6757,-0.6791,-0.68,-0.6778,-0.6781,-0.6789,-0.6788,-0.6807,-0.6812,-0.6813,-0.6813,-0.6813,0,-0.6288,-0.6309,-0.636,-0.638,-0.6403,-0.6435,-0.6458,-0.6493,-0.6517,-0.6563,-0.6579,-0.6617,-0.665,-0.6707,-0.6743,-0.6781,-0.6791,-0.6795,-0.6797,-0.6787,-0.6792,-0.679,-0.6793,-0.6795,-0.6794,-0.6794,-0.6794,0,-0.6293,-0.6308,-0.634,-0.6378,-0.6405,-0.6437,-0.647,-0.6484,-0.6526,-0.6551,-0.6588,-0.6614,-0.6664,-0.6702,-0.6744,-0.6769,-0.6789,-0.6793,-0.6797,-0.6789,-0.6775,-0.6783,-0.6775,-0.6793,-0.6793,-0.6793,-0.6793,-0.6793,-0.629,-0.631,-0.6349,-0.6384,-0.6412,-0.6442,-0.6465,-0.6494,-0.6526,-0.6569,-0.6588,-0.6626,-0.6665,-0.6723,-0.6748,-0.6778,-0.6783,-0.6789,-0.6791,-0.6792,-0.679,-0.6769,-0.6786,-0.6786,-0.6786,-0.6786,-0.6786,0,-0.6297,-0.6323,-0.6355,-0.6399,-0.6426,-0.6442,-0.6479,-0.6501,-0.6533,-0.6568,-0.6599,-0.6642,-0.6679,-0.6717,-0.6756,-0.6773,-0.6783,-0.6782,-0.6782,-0.6787,-0.6783,-0.6776,-0.6774,-0.6774,-0.6774,-0.6774,-0.6774,-0.6774,-0.6303,-0.6337,-0.6357,-0.6406,-0.6432,-0.6469,-0.6489,-0.6516,-0.6544,-0.659,-0.6621,-0.6645,-0.6682,-0.6723,-0.6758,-0.6768,-0.6782,-0.6778,-0.6791,-0.6787,-0.6788,-0.6789,-0.6782,-0.6781,-0.6781,-0.6793,-0.6793,-0.6793]}]]